CDT,Max TemperatureF,Mean TemperatureF,Min TemperatureF,Max Dew PointF,MeanDew PointF,Min DewpointF,Max Humidity, Mean Humidity, Min Humidity, Max Sea Level PressureIn, Mean Sea Level PressureIn, Min Sea Level PressureIn, Max VisibilityMiles, Mean VisibilityMiles, Min VisibilityMiles, Max Wind SpeedMPH, Mean Wind SpeedMPH, Max Gust SpeedMPH,PrecipitationIn, CloudCover, Events, WindDirDegrees
2013-5-1,89,71,54,53,44,28,60,39,11,30.16,30.02,29.89,10,10,10,25,10,33,0.00,1,,206
2013-5-2,53,47,40,41,37,35,81,66,53,30.27,30.23,30.15,10,8,2,23,16,30,0.09,6,Rain,339
2013-5-3,49,44,39,44,37,34,83,80,77,30.19,30.01,29.83,10,6,1,22,16,28,1.41,8,Rain,350
2013-5-4,67,58,48,55,51,44,84,77,61,30.04,29.92,29.81,10,8,2,16,8,20,0.27,8,Rain,111
2013-5-5,77,64,52,56,51,44,84,66,32,30.05,30.01,29.95,10,7,0,17,5,26,0.01,5,Fog-Rain,346
2013-5-6,79,66,54,53,47,36,78,52,22,30.07,30.02,29.99,10,10,10,12,4,,0.01,3,,354
2013-5-7,83,69,55,51,41,26,73,40,12,30.06,30.02,29.98,10,10,10,8,3,,0.00,1,,11
2013-5-8,83,70,56,58,49,34,78,50,18,30.03,30.00,29.96,10,10,10,10,2,13,0.00,3,Rain,151
2013-5-9,74,68,63,61,59,55,83,72,60,29.96,29.88,29.80,10,10,4,13,5,,0.19,7,Rain,186
2013-5-10,63,58,52,58,49,46,82,72,63,30.01,29.95,29.84,10,9,4,16,9,23,0.00,6,,323
2013-5-11,63,55,47,48,29,8,83,43,13,30.17,30.06,29.95,10,9,2,26,10,38,0.00,2,,287
2013-5-12,63,52,42,30,20,4,52,31,10,30.24,30.18,30.13,10,10,10,18,8,24,0.00,0,,291
2013-5-13,77,58,40,40,29,11,70,37,11,30.19,30.09,29.93,10,10,10,16,5,23,0.00,0,,200
2013-5-14,95,78,60,54,47,38,64,37,17,29.93,29.78,29.68,10,10,10,22,12,32,0.00,0,,202
2013-5-15,87,78,68,56,40,22,58,29,9,29.88,29.84,29.75,10,10,10,14,8,21,0.00,0,,292
2013-5-16,87,76,64,62,55,47,80,52,25,29.94,29.89,29.84,10,10,2,12,4,13,0.40,3,Rain,138
2013-5-17,85,74,63,62,57,51,74,54,32,29.98,29.94,29.90,10,10,10,13,6,17,0.00,3,,169
2013-5-18,87,76,66,64,60,56,82,60,35,30.00,29.94,29.86,10,8,2,14,7,18,0.00,2,,138
2013-5-19,89,78,68,70,63,52,79,64,41,29.88,29.77,29.62,10,8,2,28,11,39,0.17,4,Rain,140
2013-5-20,86,76,66,62,58,53,81,60,33,29.76,29.69,29.60,10,10,5,26,13,38,0.00,2,Rain,181
2013-5-21,81,73,65,60,55,48,80,57,31,29.71,29.68,29.65,10,10,7,21,13,30,0.00,4,,210
2013-5-22,71,66,61,56,52,48,80,61,45,29.85,29.73,29.66,10,10,2,18,7,22,0.01,7,Rain,257
2013-5-23,75,66,57,55,47,33,82,57,22,30.25,30.06,29.84,10,9,1,22,12,26,0.01,6,Rain,358
2013-5-24,73,62,50,47,38,21,83,47,14,30.43,30.33,30.22,10,9,2,15,7,20,0.00,1,,115
2013-5-25,63,59,54,50,45,36,81,63,36,30.39,30.25,30.20,10,9,2,24,10,32,0.62,7,Rain,111
2013-5-26,68,62,55,59,53,48,80,75,63,30.21,30.12,29.97,10,8,2,18,12,28,1.12,7,Rain,110
2013-5-27,77,70,63,64,61,58,82,75,60,30.01,29.87,29.76,10,8,2,18,7,17,0.07,5,Rain,124
2013-5-28,82,74,67,70,64,58,79,72,62,29.89,29.75,29.60,10,9,2,30,12,44,0.70,7,Rain,191
2013-5-29,87,76,66,68,63,58,82,62,39,29.95,29.83,29.75,10,10,2,22,14,37,0.72,2,Rain,166
2013-5-30,83,74,66,66,62,59,81,66,46,29.81,29.75,29.66,10,10,1,28,14,44,0.26,4,Rain,161
2013-5-31,80,72,65,66,61,54,80,70,54,29.82,29.74,29.68,10,10,3,40,13,47,0.09,3,Rain,171